CAPE
2722 2933 3024 2994 2735 2849 3399 4298 2917 3906 4295 4484 4069 4309 4373 4381 4514 4714 4468 4227 3943 3863 3623 3258 2694 2546 2003 1481 1310 471 149 61 0 0 2 0 0 0 0 0 0 0 0
2532 2753 2874 3066 2776 2418 2885 3697 4010 3571 4646 4053 4453 4259 4456 4347 4464 4532 4202 3202 3537 3821 3578 3624 3157 2506 2630 2078 1497 1312 1015 582 162 2 0 0 0 0 0 0 0 0 0
2487 2579 2815 2818 2538 2452 2460 3144 3597 3430 3556 3761 3871 4193 4132 4175 4364 4464 4447 4058 3822 3495 3707 3593 3497 3381 2952 2509 2168 1627 1288 441 213 1 0 0 0 0 0 0 0 0 0
2355 2554 2917 2641 2396 2268 2682 2729 3236 3397 3303 3450 3522 3696 3898 4061 3965 4112 4146 4085 3860 3621 3592 3521 3520 3398 3418 3207 2689 1975 1710 1358 864 28 0 0 0 0 0 0 0 0 0
2444 2622 2743 3057 2538 2364 2472 2864 2696 3051 3080 3266 3314 3504 3678 3399 3162 3609 3720 3690 3890 3826 3606 3539 3217 3239 3107 3097 2900 2504 2037 1759 837 401 4 0 0 0 0 0 0 0 0
2513 2604 2941 2887 2879 2497 2559 2518 3073 2812 2842 3213 3142 3162 3259 3089 2214 1810 2585 3083 3128 3191 3317 3431 3367 2966 2756 2153 1847 1836 1992 2110 1314 718 206 0 0 0 0 0 0 0 0
2565 2964 2990 3074 3000 2853 2734 2996 2664 3321 3066 3014 3154 3073 3212 3252 2571 1120 713 2075 2493 2571 3002 3143 2729 2230 1955 2587 2123 702 640 506 692 825 612 79 0 0 0 0 0 0 0
2604 2538 3106 3213 3134 2888 3143 3089 3300 2941 3262 3466 3261 3432 3303 3168 2810 2311 1289 1017 2102 2415 2442 2340 2271 2170 2121 2442 2866 2768 1163 772 1 0 3 15 0 0 0 0 0 0 0
2455 2634 2929 3170 3266 3431 3176 3249 3334 3308 3600 3393 3606 3665 3612 3486 2942 2336 931 1528 1781 1924 1956 2100 2200 2260 2295 2502 2401 2783 2935 2093 227 18 0 0 0 0 0 0 0 0 0
3550 2942 2962 3354 3249 3351 3565 3501 3461 3610 3425 3807 3782 3780 3724 3801 3377 2342 149 2166 2208 1950 1923 1989 1977 1820 2037 1889 1784 2732 2950 2954 613 3 0 0 0 0 0 0 0 0 0
3331 3822 3420 3383 3393 3563 3599 3846 3797 3789 3681 3598 3693 3797 3877 3584 3653 2337 885 2207 2318 2211 2169 2148 2154 567 36 0 0 2093 2754 2930 1730 363 0 0 0 0 0 0 0 0 0
3823 3612 3966 3602 3611 3323 3768 3709 3916 3871 3859 3819 3757 3544 3469 3673 3096 2758 567 197 2548 2594 2423 2203 1934 432 395 674 0 14 951 1354 310 0 0 0 0 0 0 0 0 0 0
4853 4118 3633 4139 3815 3691 3774 3705 3822 3912 3815 3764 3702 3339 3549 3115 3728 2186 583 0 49 1688 2563 2348 1756 0 0 0 0 0 0 398 30 0 0 0 0 0 0 0 0 0 0
3860 4438 4309 4035 3876 3844 3545 3491 3708 3749 3801 3767 3602 3505 3245 3043 3275 2965 1216 53 0 17 684 1407 694 489 5 15 4 0 0 95 7 0 0 0 0 0 0 0 0 0 0
1472 3738 3722 3652 3489 3629 3672 3326 3155 3656 3484 3621 3567 3251 3236 3068 2864 2477 2497 2562 1639 895 1331 1784 2172 1271 1302 615 168 334 6 0 0 0 0 0 0 0 0 0 0 0 0
846 1917 2570 2619 2700 2855 3147 3430 2771 2134 2139 2481 1420 1202 3064 771 220 47 51 0 1649 1671 934 2269 2489 2213 1581 920 850 699 0 0 0 0 0 0 0 0 0 0 0 0 0
84 1088 1112 1375 2273 2600 2538 3025 3222 2739 1777 1099 1474 1 1 1086 27 0 0 0 8 258 2465 2500 2598 2758 2743 1061 1059 1704 562 0 0 0 0 0 0 0 0 0 0 0 0
2 0 415 639 798 596 2447 2911 2898 3344 3335 2808 278 233 19 0 0 48 44 33 386 446 2235 2473 2678 2693 2406 2196 1413 1510 194 0 0 0 0 0 0 0 0 0 0 0 0
9 7 8 20 86 10 596 178 1065 2121 2480 2477 2288 378 0 1 2 2 2 1240 1790 1924 2047 2028 2052 1925 1975 2077 1526 747 156 0 0 0 0 0 0 0 0 0 0 0 0
17 3 6 16 18 6 9 5 8 7 77 77 33 4 19 1 244 394 0 212 1370 1691 1699 1844 2217 2630 2072 1515 498 58 0 0 0 0 0 0 0 0 0 0 0 0 0
3 8 8 7 31 20 8 11 10 10 6 8 8 5 1 405 12 29 289 827 822 1163 2012 2056 2611 1851 1465 710 127 0 0 0 0 0 0 0 0 0 0 0 0 0 0
1 2 1 1 35 15 32 13 9 8 9 9 9 7 0 6 7 2 0 5 10 45 58 628 1155 1172 1268 952 0 0 0 0 0 0 0 0 0 0 0 0 0 0 0
0 0 0 0 8 1 11 2 5 6 8 9 8 12 5 11 13 12 12 0 1 1 2 0 0 0 0 0 0 0 0 0 0 0 0 0 0 0 0 0 0 0 0
0 0 0 0 0 0 0 0 0 0 0 3 7 7 10 4 8 7 2 2 0 5 0 0 0 0 0 0 0 0 1 3 0 0 0 0 0 0 0 0 0 0 0
0 0 0 0 0 0 0 0 0 0 0 0 0 0 0 0 2 0 5 6 5 4 0 1 0 0 0 0 0 0 0 0 0 0 0 0 0 0 0 0 0 0 0
0 0 0 0 0 0 0 0 0 0 0 0 1 0 0 0 0 0 0 0 0 0 0 3 0 0 0 0 0 0 0 0 0 0 0 0 0 0 0 0 0 0 0
CIN
-7 -2 -3 -1 -4 -24 -18 -4 -31 -21 -17 -7 -15 -6 -5 -4 -4 -3 -4 -7 -29 -40 -66 -97 -153 -177 -217 -246 -241 -436 -551 -568 -0 -0 -409 -0 -0 -0 -0 -0 -0 -0 -0
-20 -7 -3 -1 -1 -26 -20 -4 -6 -19 -4 -19 -3 -6 -3 -7 -7 -6 -17 -58 -58 -46 -73 -71 -125 -177 -151 -181 -232 -255 -282 -382 -534 -593 -0 -0 -0 -0 -0 -0 -0 -0 -0
-33 -12 -3 -2 -10 -31 -44 -19 -6 -16 -16 -10 -10 -3 -7 -10 -8 -7 -13 -33 -46 -68 -58 -81 -97 -97 -117 -122 -120 -182 -225 -464 -527 -91 -0 -0 -0 -0 -0 -0 -0 -0 -0
-28 -18 -2 -7 -29 -54 -35 -50 -23 -22 -29 -25 -31 -24 -18 -14 -19 -18 -19 -35 -54 -70 -77 -85 -89 -92 -72 -67 -97 -169 -163 -191 -282 -359 -0 -0 -0 -0 -0 -0 -0 -0 -0
-29 -20 -26 -5 -19 -48 -49 -35 -74 -48 -57 -45 -37 -28 -31 -54 -68 -45 -42 -55 -51 -63 -83 -91 -118 -110 -100 -72 -65 -104 -153 -153 -330 -422 -380 -0 -0 -0 -0 -0 -0 -0 -0
-29 -26 -20 -22 -14 -46 -46 -62 -31 -78 -87 -51 -62 -64 -56 -73 -140 -181 -107 -78 -89 -92 -95 -96 -114 -147 -155 -221 -240 -206 -156 -123 -209 -280 -447 -0 -0 -0 -0 -0 -0 -0 -0
-32 -25 -24 -25 -20 -32 -43 -17 -61 -30 -80 -88 -77 -85 -81 -98 -142 -273 -361 -202 -137 -135 -103 -100 -150 -175 -201 -174 -236 -572 -582 -593 -445 -308 -340 -551 -0 -0 -0 -0 -0 -0 -0
-26 -27 -24 -16 -16 -47 -24 -25 -21 -55 -45 -47 -77 -70 -89 -110 -138 -183 -293 -406 -205 -184 -185 -202 -224 -264 -279 -190 -120 -126 -476 -590 -248 -460 -376 -292 -0 -0 -0 -0 -0 -0 -0
-42 -33 -19 -19 -8 -7 -8 -11 -19 -11 -8 -30 -32 -44 -61 -101 -156 -212 -411 -304 -236 -240 -254 -267 -253 -269 -279 -210 -225 -150 -139 -240 -757 -965 -0 -0 -0 -0 -0 -0 -0 -0 -0
-9 -19 -24 -14 -20 -12 -10 -11 -11 -6 -4 -2 -7 -21 -31 -38 -89 -213 -668 -188 -162 -208 -259 -267 -272 -331 -310 -351 -352 -160 -130 -109 -591 -131 -0 -0 -0 -0 -0 -0 -0 -0 -0
-20 -10 -13 -24 -16 -18 -12 -7 -6 -4 -3 -7 -5 -8 -14 -56 -61 -211 -457 -188 -147 -153 -174 -201 -209 -533 -557 -0 -0 -275 -157 -95 -253 -647 -0 -0 -0 -0 -0 -0 -0 -0 -0
-25 -15 -18 -17 -10 -4 -13 -8 -6 -5 -5 -4 -6 -5 -3 -12 -62 -144 -602 -291 -154 -128 -151 -188 -210 -692 -743 -607 -0 -860 -551 -357 -746 -0 -0 -0 -0 -0 -0 -0 -0 -0 -0
-4 -23 -24 -17 -13 -9 -10 -10 -3 -5 -2 -1 -0 -0 -2 -15 -8 -156 -588 -0 -367 -274 -156 -187 -278 -0 -0 -85 -0 -0 -7 -665 -895 -0 -0 -0 -0 -0 -0 -0 -0 -0 -0
-47 -2 -7 -9 -15 -8 -3 -4 -4 -0 -0 -0 -0 -1 -3 -8 -4 -11 -313 -106 -0 -132 -489 -343 -507 -614 -901 -200 -80 -0 -0 -758 -290 -0 -0 -0 -0 -0 -0 -0 -0 -0 -0
-318 -10 -8 -6 -12 -6 -4 -1 -1 -2 -0 -0 -3 -11 -2 -3 -10 -31 -24 -96 -241 -455 -306 -209 -135 -328 -326 -542 -764 -628 -458 -0 -0 -0 -0 -0 -0 -0 -0 -0 -0 -0 -0
-356 -122 -57 -60 -48 -37 -16 -4 -22 -68 -103 -34 -173 -116 -11 -303 -381 -608 -136 -0 -178 -185 -373 -112 -80 -98 -219 -391 -388 -425 -0 -0 -0 -0 -0 -0 -0 -0 -0 -0 -0 -0 -0
-537 -188 -232 -171 -60 -28 -46 -4 -2 -17 -99 -263 -174 -363 -18 -150 -574 -0 -0 -0 -20 -642 -73 -68 -28 -15 -21 -325 -296 -127 -460 -0 -0 -0 -0 -0 -0 -0 -0 -0 -0 -0 -0
-0 -0 -362 -337 -324 -452 -40 -17 -13 -0 -1 -33 -58 -290 -117 -0 -0 -402 -607 -119 -546 -438 -82 -45 -38 -41 -40 -53 -214 -161 -590 -0 -0 -0 -0 -0 -0 -0 -0 -0 -0 -0 -0
-0 -0 -0 -513 -500 -341 -342 -511 -266 -81 -26 -46 -81 -277 -0 -0 -0 -0 -0 -155 -70 -59 -53 -64 -83 -92 -77 -77 -172 -339 -555 -0 -0 -0 -0 -0 -0 -0 -0 -0 -0 -0 -0
-2 -1 -0 -0 -0 -0 -0 -0 -0 -0 -371 -460 -355 -0 -115 -24 -182 -153 -0 -336 -124 -93 -81 -54 -29 -72 -55 -159 -400 -639 -0 -0 -0 -0 -0 -0 -0 -0 -0 -0 -0 -0 -0
-0 -0 -1 -1 -0 -0 -0 -0 -0 -0 -0 -0 -0 -0 -0 -194 -191 -321 -260 -65 -75 -58 -23 -5 -10 -67 -135 -277 -494 -0 -0 -0 -0 -0 -0 -0 -0 -0 -0 -0 -0 -0 -0
-0 -0 -0 -1 -0 -0 -0 -0 -0 -0 -0 -0 -0 -0 -0 -0 -0 -0 -0 -0 -122 -467 -466 -173 -81 -81 -73 -139 -0 -0 -0 -0 -0 -0 -0 -0 -0 -0 -0 -0 -0 -0 -0
-0 -0 -0 -0 -1 -3 -0 -0 -0 -0 -0 -0 -0 -0 -0 -0 -0 -0 -0 -0 -0 -1 -1 -0 -0 -0 -0 -0 -0 -0 -0 -0 -0 -0 -0 -0 -0 -0 -0 -0 -0 -0 -0
-0 -0 -0 -0 -0 -0 -0 -0 -0 -0 -0 -0 -0 -0 -0 -0 -0 -0 -0 -0 -0 -0 -0 -0 -0 -0 -0 -0 -4 -1 -2 -3 -0 -0 -0 -0 -0 -0 -0 -0 -0 -0 -0
-0 -0 -0 -0 -0 -0 -0 -0 -0 -0 -0 -0 -0 -0 -0 -0 -0 -0 -0 -0 -0 -0 -0 -0 -0 -0 -0 -0 -0 -1 -0 -0 -0 -0 -0 -0 -0 -0 -0 -0 -0 -0 -0
-0 -0 -0 -0 -0 -0 -0 -0 -0 -0 -0 -0 -0 -0 -0 -0 -0 -0 -0 -0 -0 -0 -0 -0 -0 -0 -0 -0 -0 -0 -0 -0 -0 -0 -0 -0 -0 -0 -0 -0 -0 -0 -0
Wind_Speed
17 15 14 13 13 11 8 7 8 5 5 6 6 6 6 6 6 6 4 5 6 6 5 4 5 6 3 3 3 3 4 3 4 3 1 2 3 4 2 4 2 4 6
17 14 15 14 14 14 12 9 8 8 5 7 6 6 5 7 7 7 7 6 7 7 7 7 7 5 5 5 4 6 4 3 2 5 2 2 4 5 5 4 4 6 4
16 15 15 15 15 15 15 12 10 9 8 9 8 8 8 7 7 7 7 7 7 6 6 7 8 7 6 5 5 5 4 3 3 4 3 4 4 3 4 4 4 6 5
17 17 16 16 16 15 14 15 11 11 11 10 9 10 9 8 8 8 8 8 8 8 7 7 8 8 7 7 7 8 6 5 5 4 4 6 4 5 4 3 3 4 2
17 17 18 15 15 15 15 14 15 12 12 12 11 10 10 10 9 9 9 8 8 9 9 9 9 10 12 10 7 8 8 7 6 7 5 4 5 4 4 3 2 2 3
16 18 16 17 15 15 14 15 13 14 14 12 12 12 11 10 13 14 11 10 10 11 10 10 10 12 11 14 18 17 13 9 8 7 5 6 5 4 3 3 2 1 3
14 16 17 17 17 16 16 14 16 15 15 15 14 13 13 13 13 11 14 10 10 10 9 7 9 10 9 8 12 17 16 14 13 10 10 10 6 4 3 2 2 1 3
14 15 16 17 18 18 17 17 15 15 15 15 15 15 14 12 13 15 14 8 10 11 11 12 13 13 12 9 9 10 11 12 12 10 12 12 4 5 3 4 2 5 1
18 15 14 16 17 16 17 17 16 14 15 15 15 16 16 15 16 17 10 10 11 13 13 13 13 15 15 14 12 13 13 9 12 14 13 7 12 9 6 4 2 2 4
14 15 14 14 17 18 18 18 16 14 15 12 15 16 16 16 14 16 14 10 12 10 12 14 17 19 20 19 13 13 12 10 8 5 5 6 9 5 8 4 3 4 3
13 14 15 15 16 16 15 14 15 15 14 15 15 15 16 16 16 18 19 13 11 11 11 11 11 2 11 17 14 14 13 6 7 7 6 5 5 6 4 5 6 6 5
13 13 13 15 13 13 16 14 15 15 15 16 15 14 12 15 17 18 20 22 17 13 12 11 8 7 2 1 5 10 8 6 4 4 5 5 5 5 4 5 8 8 9
8 12 13 12 13 14 13 15 13 15 14 14 13 13 12 13 12 20 21 22 23 14 13 14 5 8 2 3 5 0 7 3 4 4 6 6 6 6 6 4 6 9 10
12 8 8 10 11 12 11 11 12 13 13 13 12 13 12 12 11 12 12 12 20 14 15 11 6 4 3 3 4 4 4 4 5 5 4 4 5 4 5 5 4 4 5
13 8 8 8 9 10 11 11 12 13 13 12 12 12 11 13 13 17 15 12 12 15 12 8 8 5 4 4 4 6 4 2 3 4 4 5 6 5 5 4 4 3 3
11 8 5 4 5 7 9 10 14 14 14 16 12 7 10 5 4 5 9 7 18 14 8 10 9 8 8 7 7 7 8 8 7 6 5 6 6 7 5 3 3 4 4
10 8 6 7 8 11 11 11 11 13 16 16 15 11 15 9 10 10 8 8 10 13 8 9 8 6 5 7 7 6 7 8 8 6 6 6 5 5 6 3 4 4 4
12 11 8 8 7 11 7 12 11 11 11 11 17 17 19 14 12 17 17 11 2 2 4 5 4 4 5 7 8 5 4 6 6 6 6 6 5 6 5 4 4 5 5
10 9 8 7 7 10 10 12 10 6 6 2 3 2 6 3 5 4 1 7 9 7 7 7 7 7 8 5 5 4 6 6 7 6 6 6 7 6 5 4 5 7 4
7 11 9 7 7 9 8 9 10 11 11 9 9 10 8 2 2 5 4 5 7 8 8 7 7 5 3 5 6 6 6 6 6 6 7 7 7 7 6 7 6 6 5
7 8 10 8 8 8 8 10 9 8 8 8 8 12 18 9 11 10 11 7 4 6 4 4 3 4 5 4 4 5 4 5 5 6 6 7 8 8 7 7 7 6 5
10 9 8 7 5 7 7 7 9 9 8 8 7 9 14 8 8 8 11 12 9 10 10 9 7 7 5 3 5 4 4 5 5 6 6 7 7 8 7 7 8 3 4
9 12 11 10 7 5 5 7 8 10 7 7 7 7 8 7 8 8 9 7 9 9 8 8 8 8 5 4 3 4 4 5 6 6 7 8 8 8 8 8 5 4 3
7 6 8 9 11 10 9 7 7 8 7 7 6 6 6 8 8 9 8 7 8 7 7 9 8 8 7 5 3 4 5 4 5 8 10 8 8 9 8 5 7 6 8
7 7 4 4 5 7 9 11 10 10 9 7 4 8 8 7 8 8 8 7 6 7 9 8 7 11 12 9 7 6 8 8 6 7 7 8 9 11 6 6 5 5 10
6 7 7 7 6 2 5 5 7 7 8 7 8 6 6 7 9 7 7 8 7 7 11 8 11 17 19 17 9 11 7 5 4 5 5 6 6 5 4 4 7 5 5
Wind_Direction
191 189 189 192 200 213 232 217 209 250 170 166 182 203 178 184 183 181 249 158 193 210 224 245 226 234 261 291 277 216 219 218 244 278 250 122 165 173 204 232 275 278 257
187 193 191 192 196 204 213 223 189 211 203 190 196 207 207 193 195 197 202 235 213 219 227 233 233 233 228 211 249 268 256 231 229 258 242 250 222 185 199 223 242 257 279
184 192 193 194 196 201 205 216 204 199 221 199 205 216 213 216 209 211 212 221 240 246 238 234 244 231 233 233 230 253 258 225 232 229 250 250 230 226 201 210 228 267 249
186 190 198 199 197 202 204 204 214 199 207 219 218 211 221 220 223 221 220 226 239 248 251 256 252 247 242 227 225 230 241 241 244 231 235 252 229 237 167 195 251 251 297
183 195 197 197 201 202 204 205 205 212 208 211 219 227 215 221 226 225 230 233 236 242 246 252 256 252 240 226 230 227 226 234 224 246 240 238 235 213 188 205 187 258 41
190 196 196 199 198 204 206 205 205 206 212 208 215 220 227 230 224 219 216 231 238 247 252 254 256 256 255 230 228 224 222 224 220 240 246 242 247 196 185 200 185 126 32
199 196 197 197 200 204 206 206 207 206 204 209 212 217 224 226 227 219 221 227 238 249 258 264 269 268 256 261 231 227 226 218 215 232 243 245 255 211 185 135 87 165 207
204 206 198 200 204 206 208 208 213 209 210 208 211 215 219 227 219 215 211 221 234 243 250 256 262 270 267 271 274 258 220 217 210 218 230 243 210 164 132 140 69 286 245
216 208 208 202 209 210 213 215 213 219 211 215 216 214 219 225 212 213 196 221 232 240 247 250 253 260 261 239 247 255 258 223 202 202 220 155 114 99 88 94 50 270 319
210 215 207 212 208 213 213 213 215 218 225 220 219 219 220 225 219 210 200 226 232 238 243 248 237 239 247 242 237 247 255 250 189 159 182 129 134 122 138 130 146 287 296
224 206 214 210 218 213 217 217 216 218 223 221 228 222 223 220 225 204 202 217 229 234 241 247 249 193 254 255 230 243 242 235 174 186 173 160 154 158 160 173 189 229 232
202 221 206 214 212 217 214 218 219 218 222 227 226 231 232 225 218 210 203 208 219 229 236 246 242 134 79 166 197 243 176 153 120 144 152 172 180 177 180 186 211 224 227
206 206 223 210 214 216 220 215 218 218 221 222 224 232 227 230 227 215 202 208 219 226 232 241 203 157 172 170 209 326 164 174 157 183 200 197 187 176 176 187 223 225 234
316 230 215 225 214 217 217 224 218 218 219 222 226 228 229 235 229 222 211 212 226 221 239 241 224 190 66 97 121 167 212 215 198 216 208 174 163 171 194 203 220 193 200
328 287 236 228 220 222 221 223 228 224 223 222 223 230 237 226 225 217 222 202 210 215 211 217 223 200 207 189 213 228 171 179 180 173 192 177 182 182 195 197 208 218 193
317 328 322 263 238 230 230 229 241 248 226 232 243 237 229 233 79 28 216 192 198 171 184 209 212 199 205 194 211 203 179 189 196 199 195 189 192 184 193 192 200 203 203
333 317 317 295 287 223 214 219 228 236 227 216 239 221 214 240 144 122 109 78 131 146 198 203 213 204 195 185 209 228 183 190 169 174 182 183 182 176 171 205 201 189 230
350 342 344 357 330 336 257 211 224 217 217 226 223 219 223 187 173 163 157 133 121 281 237 229 229 219 223 208 197 205 129 131 158 162 171 181 182 172 183 190 198 213 227
5 4 1 350 359 355 3 22 335 295 274 349 281 2 60 74 178 139 194 224 224 226 226 222 216 227 238 174 166 146 140 159 156 162 177 181 183 179 185 180 229 223 213
8 346 11 8 4 22 23 32 28 14 24 25 40 20 1 183 245 238 232 279 249 240 239 242 245 216 194 144 142 139 143 145 163 174 180 184 183 187 189 196 230 225 191
2 23 7 21 8 23 33 47 33 28 24 20 13 18 354 48 42 41 30 4 342 307 274 298 13 109 115 118 121 145 146 146 172 179 183 185 180 181 194 212 236 219 237
357 0 36 10 30 29 17 41 67 40 20 15 8 18 8 39 49 37 53 13 360 15 0 5 22 10 24 117 132 136 150 169 176 186 189 184 183 187 194 214 234 209 185
16 9 8 5 25 43 64 56 40 54 32 9 13 15 34 41 51 28 24 72 22 357 3 351 8 1 10 47 111 158 190 197 182 186 183 183 187 193 204 223 184 201 218
21 59 27 21 18 11 16 59 113 97 65 47 6 15 28 46 52 47 40 5 47 347 356 12 0 343 313 293 188 193 211 195 176 182 182 190 194 199 219 171 215 189 128
23 0 64 65 44 27 359 14 16 10 58 39 56 39 31 55 37 38 46 23 29 14 7 7 3 353 340 347 330 4 68 93 120 155 179 199 212 214 199 171 187 210 132
21 11 13 16 23 129 85 49 15 11 14 40 3 78 53 42 51 31 27 38 18 31 20 357 12 12 9 4 27 96 109 133 195 194 191 216 226 195 176 198 201 151 144